RH
37 43 50 58 65 69 73 77 80 80 77 77 78 75 69 64 61 60 58 51 44 42 47 49 45 42 39 36 34 33 33 34 36 39 43 47 52 58 63 68 74 76 78 84 87 86 85 84 83 86 88 88
24 27 32 40 49 56 62 67 72 77 79 81 83 84 82 84 85 85 85 78 65 53 48 47 48 47 44 41 36 33 31 30 31 33 34 37 39 41 44 46 49 50 53 57 59 59 60 61 62 65 67 68
18 19 20 23 29 36 43 48 54 60 67 73 79 82 83 85 90 96 102 102 92 83 71 59 55 52 48 45 41 38 36 33 31 31 31 33 34 36 38 40 41 43 44 45 45 45 46 47 48 49 49 49
17 17 16 17 19 22 27 31 35 39 44 51 58 67 74 78 83 89 98 104 102 98 92 78 68 63 59 55 50 46 43 40 36 34 33 34 35 36 37 38 39 41 44 44 44 43 43 43 43 42 42 42
21 20 18 17 16 17 18 21 23 26 28 32 36 42 50 59 67 74 81 87 91 93 92 88 82 78 77 74 68 61 55 49 43 40 37 37 38 39 40 40 39 39 41 43 43 42 41 40 41 40 40 40
26 25 23 21 19 18 17 17 18 19 20 22 24 27 30 36 43 53 60 66 73 76 77 80 80 78 80 83 80 75 69 62 55 50 48 45 43 43 44 43 43 42 41 42 42 42 41 42 43 43 43 44
33 30 27 26 25 24 22 20 19 19 19 18 18 20 22 24 27 33 39 46 53 58 61 63 64 64 66 71 76 77 74 70 66 62 60 58 54 53 53 52 52 50 49 48 48 47 48 48 48 48 47 47
39 36 32 29 28 28 27 26 25 23 23 22 21 19 18 19 20 22 25 29 35 42 47 49 49 50 51 55 60 65 66 66 65 62 59 56 54 55 57 57 57 57 56 55 54 53 52 52 51 50 49 49
40 38 36 33 31 30 30 30 30 29 28 28 27 26 25 22 20 19 19 20 23 28 34 38 39 39 39 41 43 47 52 55 56 56 55 53 51 51 50 50 51 53 54 53 53 53 53 52 51 50 49 50
46 44 41 38 36 34 33 32 32 33 32 32 32 32 32 31 29 27 24 22 20 22 24 28 30 32 33 33 33 33 37 44 48 51 52 53 52 50 47 45 45 44 45 46 46 46 46 47 49 48 47 47
49 51 51 48 46 44 42 41 39 37 36 36 36 37 36 36 36 34 33 31 28 27 26 26 25 26 29 31 34 32 30 35 41 45 47 48 48 47 45 43 42 40 40 39 39 39 38 38 40 42 43 44
36 41 45 48 49 50 50 50 49 46 44 43 42 41 40 39 39 38 37 36 35 34 34 33 30 28 29 32 38 41 41 41 39 40 42 44 44 44 42 41 41 40 38 35 33 32 31 30 31 32 34 36
23 25 30 34 37 40 42 45 46 46 45 44 43 42 41 40 41 41 40 39 38 37 37 38 36 35 34 34 38 46 52 54 50 46 43 42 41 39 38 38 38 38 37 34 32 32 29 28 28 30 30 30
17 19 21 23 25 28 30 32 34 35 36 36 35 35 35 35 37 41 44 44 43 42 41 41 40 39 39 38 40 45 50 53 54 53 50 47 43 40 38 38 39 39 38 36 35 36 34 31 30 32 32 32
14 15 15 16 18 19 20 22 23 24 26 27 27 27 27 28 29 33 38 43 44 44 43 44 45 43 43 43 44 49 51 48 48 50 50 48 47 45 44 45 46 44 40 36 33 34 34 34 34 34 35 36
13 13 13 13 13 14 14 15 15 16 17 17 19 19 20 21 22 24 26 31 34 36 38 40 43 44 44 45 46 50 51 48 46 47 48 45 44 44 44 44 45 42 39 35 33 33 34 35 35 35 35 35
13 13 13 13 12 12 12 12 12 12 12 12 13 13 14 15 16 17 18 20 22 24 27 30 35 38 39 40 42 44 46 46 46 47 48 47 45 44 43 43 44 43 41 39 37 36 36 35 34 33 32 31
14 13 13 13 12 12 12 12 12 12 11 11 11 11 11 11 11 12 13 13 14 16 18 21 25 28 30 32 34 36 38 41 43 44 45 46 46 46 45 44 43 44 43 39 37 36 34 32 30 27 26 24
14 14 13 13 13 13 13 12 12 12 12 12 11 11 10 11 10 10 10 10 11 11 12 14 16 18 20 23 25 28 31 33 35 37 39 41 41 41 42 41 40 41 41 37 34 33 31 29 27 24 22 21
16 15 14 14 13 13 13 13 13 12 12 12 12 11 11 11 10 10 10 10 10 10 10 11 11 12 14 16 18 20 23 26 28 29 32 33 34 35 36 37 36 37 38 37 35 32 31 29 28 26 24 22
17 17 16 15 14 13 13 13 13 13 13 13 12 12 12 11 11 11 11 10 10 10 10 10 10 11 11 12 13 14 15 17 19 21 23 25 27 28 29 31 31 31 32 32 32 31 30 29 27 26 26 25
19 18 18 17 16 15 14 14 13 13 13 13 13 13 12 12 12 11 11 11 11 10 10 10 10 10 10 11 11 11 12 12 13 14 15 17 18 19 20 22 23 24 25 26 26 26 26 26 25 26 26 26
21 20 19 19 18 17 16 15 14 14 13 13 13 13 13 13 12 12 12 11 11 11 11 10 10 10 10 11 11 11 11 11 12 12 12 13 13 14 14 15 16 17 19 21 23 24 25 25 25 24 25 25
23 22 22 21 19 18 17 16 16 15 14 14 13 13 13 13 13 13 12 12 12 11 11 11 11 11 10 10 10 11 11 11 12 12 12 12 12 13 13 13 14 14 15 17 19 23 26 29 30 29 26 23
26 25 23 23 22 20 19 18 17 16 16 15 15 14 14 14 14 13 13 13 13 12 12 12 11 11 11 11 11 10 11 11 11 12 12 12 12 12 13 13 13 14 14 15 16 18 23 28 32 34 32 28
29 28 26 25 24 23 22 20 19 18 17 16 16 15 15 15 14 14 14 14 14 14 13 13 13 12 12 11 11 11 11 11 11 11 12 12 13 13 13 13 13 14 14 14 15 15 18 21 26 30 32 31
33 30 29 28 26 25 24 23 22 20 19 18 17 17 16 15 15 15 15 15 14 14 14 14 14 14 13 13 13 12 12 12 12 12 12 12 13 13 14 14 14 14 14 14 15 15 16 17 20 23 25 27
38 35 33 31 30 29 27 25 24 23 22 20 19 18 17 17 16 16 15 15 15 15 15 15 15 15 14 14 14 14 13 13 13 12 12 12 13 13 14 15 15 15 15 15 15 15 15 16 17 18 20 22
43 42 39 36 35 33 32 30 28 26 25 23 22 21 20 19 18 17 17 16 16 16 15 15 15 15 15 15 15 15 15 14 14 13 13 13 13 13 14 14 15 16 16 16 16 16 16 16 16 17 18 19
43 44 43 41 39 37 36 35 32 30 28 26 25 23 22 21 21 20 19 18 17 17 16 16 16 16 15 16 15 15 15 15 15 15 14 14 14 14 14 15 15 15 16 17 17 17 16 17 17 17 17 18
48 46 46 44 42 40 39 38 37 35 33 31 29 27 25 24 23 23 22 21 20 19 18 17 17 17 16 16 16 16 16 16 16 16 16 16 15 15 15 15 16 16 16 17 17 18 17 17 17 18 18 18
Wind_Speed
85 85 86 87 87 88 88 87 87 87 86 85 86 85 84 84 85 86 86 88 88 87 85 84 85 86 89 90 89 89 88 87 86 86 86 87 87 87 87 86 86 86 85 85 86 86 86 85 85 85 86 86
88 87 87 86 87 88 89 89 89 89 89 89 89 88 87 86 86 86 87 90 91 91 90 87 86 88 90 91 91 91 91 90 89 89 89 89 89 89 89 90 90 90 89 90 90 90 89 89 89 89 89 89
92 92 91 89 89 88 88 89 89 90 90 91 92 92 91 90 89 88 87 91 93 93 94 93 91 91 92 92 93 92 92 92 92 91 91 92 92 91 92 92 92 92 92 93 93 93 92 92 92 93 93 92
94 94 94 93 92 91 91 91 91 90 91 92 92 93 94 94 93 91 91 93 94 95 96 96 95 94 95 96 96 95 94 94 94 93 93 93 93 93 94 95 95 95 95 96 95 95 95 96 96 96 95 95
94 94 94 95 95 94 94 94 94 94 94 94 94 94 95 96 95 95 95 95 96 97 99 99 98 97 97 99 100 100 99 98 97 96 95 95 94 94 95 96 96 97 98 98 98 98 98 98 99 99 98 99
97 97 96 96 95 95 95 96 96 97 97 98 98 98 97 97 97 97 98 97 97 100 100 101 102 101 100 102 103 103 104 103 102 100 99 99 98 98 98 98 98 98 98 99 99 100 100 100 101 100 101 101
102 101 99 98 98 97 96 96 96 96 97 98 99 101 101 101 100 100 100 99 99 101 101 102 103 103 102 103 105 106 107 106 105 104 104 104 103 103 103 103 103 102 102 101 101 101 101 102 102 102 103 103
106 105 104 103 101 101 100 99 98 97 97 97 97 99 100 101 102 102 103 102 102 102 102 103 103 104 104 104 106 107 108 108 107 107 106 106 104 104 106 106 106 106 106 106 105 105 105 105 106 106 106 107
110 109 108 107 106 105 104 103 102 101 100 99 99 99 99 100 100 101 102 103 104 104 105 105 104 104 105 106 108 108 109 109 109 109 108 108 106 106 106 106 106 107 107 107 107 107 108 108 109 109 109 110
113 113 112 111 110 109 108 107 106 105 104 103 103 102 102 102 102 101 101 102 103 104 106 107 105 105 106 107 109 110 110 110 111 110 111 111 111 110 110 109 108 108 108 107 107 107 108 109 109 109 109 110
115 115 115 114 113 113 112 111 110 108 107 106 106 106 106 106 106 105 104 103 103 103 105 106 106 105 106 107 108 110 111 111 112 112 113 114 114 114 114 113 111 110 110 110 110 110 110 110 110 111 112 111
116 117 117 117 117 117 116 115 115 114 113 112 111 110 110 109 109 109 108 108 107 106 107 107 106 105 106 106 107 109 111 112 114 114 114 115 116 116 116 115 114 113 113 113 113 113 113 113 113 114 114 114
114 116 117 118 119 119 119 119 119 118 118 118 117 116 116 115 114 113 112 111 111 111 111 110 110 108 108 108 108 110 113 115 116 115 115 116 117 117 117 117 117 117 116 116 115 115 116 116 115 115 116 116
107 109 112 114 116 118 119 120 121 121 121 121 120 120 119 119 118 117 117 116 116 115 115 114 114 113 113 112 112 113 116 118 118 118 118 119 119 119 118 118 119 120 120 119 119 118 118 118 117 117 117 116
99 102 104 106 109 112 114 116 118 119 120 120 121 121 121 121 120 120 120 120 120 120 119 119 118 118 118 118 117 118 120 121 120 121 122 122 122 121 121 120 121 122 123 123 123 122 121 121 121 120 119 119
94 96 98 100 102 104 106 109 111 113 115 116 117 119 120 120 121 121 121 122 122 122 122 122 121 121 121 122 122 122 124 124 123 123 125 126 126 125 124 123 124 124 125 126 126 126 125 125 125 125 124 125
90 92 93 95 97 98 100 102 104 106 108 110 111 113 115 116 118 119 120 121 121 122 123 123 123 123 124 125 125 126 127 127 126 126 128 129 129 129 129 128 127 128 129 129 130 130 130 130 130 130 129 130
87 89 90 91 93 94 95 96 98 100 102 104 106 107 109 111 112 114 116 118 119 120 121 122 123 124 124 125 126 127 128 129 129 130 130 132 133 133 133 133 132 133 134 134 134 134 134 135 135 135 134 135
85 87 88 89 90 90 91 92 93 95 97 99 101 103 104 105 107 108 110 112 114 115 117 118 120 121 122 124 125 126 127 128 129 130 131 133 134 134 135 136 135 135 136 138 137 137 137 138 139 138 138 138
83 85 86 87 88 88 89 89 90 91 93 95 97 98 100 101 102 104 105 107 108 110 112 114 115 116 118 120 122 123 125 126 127 128 129 131 133 133 134 135 136 136 136 138 139 139 139 140 140 140 140 140
82 83 84 85 86 87 87 88 88 88 89 90 92 94 96 97 99 100 101 103 104 105 107 108 110 111 113 115 117 119 121 122 124 125 127 128 130 131 131 132 133 134 135 137 138 139 140 140 141 140 140 141
80 81 82 84 85 85 86 87 87 87 87 88 88 90 92 94 95 97 98 99 101 102 103 104 106 107 108 110 111 113 115 117 119 121 122 124 126 127 128 129 129 130 132 133 135 136 137 138 139 138 139 139
77 78 80 81 83 84 84 85 86 86 86 87 87 87 88 90 92 93 95 96 98 99 100 101 103 104 105 106 108 109 110 112 114 116 118 119 121 122 124 125 125 126 127 129 131 133 134 136 136 137 137 137
74 75 76 78 79 81 82 83 84 85 85 86 86 86 87 87 89 90 92 93 94 96 97 99 100 101 102 104 105 106 107 108 109 111 113 115 117 118 119 120 122 123 124 125 127 129 132 134 135 136 137 136
73 74 75 75 76 77 79 80 81 83 84 84 85 85 85 86 87 87 89 90 91 93 94 96 97 98 100 101 103 104 105 106 107 108 109 111 113 115 116 117 118 120 122 123 124 127 129 132 134 135 137 137
72 73 73 74 75 75 76 77 78 80 81 82 83 84 84 85 85 86 87 87 88 90 91 92 94 96 97 98 100 101 103 104 105 106 107 108 109 111 113 114 116 117 119 121 123 125 127 130 132 134 136 137
73 73 73 73 74 74 75 76 77 77 78 79 80 82 83 83 84 85 85 86 87 87 88 90 91 92 94 96 97 99 100 102 103 105 106 106 107 108 110 112 113 115 117 119 121 123 125 128 130 133 134 136
74 74 74 74 74 74 75 75 76 76 77 78 78 79 80 81 83 84 84 85 85 86 87 88 89 90 91 93 94 96 98 99 101 103 104 105 106 107 107 109 110 112 114 117 119 121 123 126 129 131 132 134
74 75 76 76 75 75 75 75 75 76 76 77 77 78 78 79 80 82 83 84 84 85 86 87 88 89 89 91 92 93 95 96 98 100 102 103 105 106 106 107 108 109 111 113 116 119 121 123 126 128 130 131
74 74 75 76 76 76 76 76 76 76 76 77 77 77 78 78 78 79 81 82 83 84 85 85 86 87 88 89 90 91 92 94 96 97 99 101 103 104 105 106 107 107 108 110 112 115 118 120 122 125 127 128
74 74 74 75 76 76 77 76 76 76 76 77 77 78 78 78 78 78 78 80 81 83 83 84 85 86 87 88 88 90 91 92 93 95 96 98 100 102 103 104 105 106 107 108 110 112 114 116 118 121 123 125
Wind_Direction
253 253 253 252 252 253 253 254 255 256 257 257 258 259 259 260 260 261 262 262 261 260 259 260 260 260 260 261 262 263 264 264 264 265 265 265 265 265 265 266 266 266 267 267 268 268 269 269 270 271 271 271
255 255 254 254 253 253 253 254 254 255 256 257 258 259 259 259 260 261 262 263 264 263 262 262 261 261 261 262 262 263 263 264 264 264 264 265 265 266 266 266 266 267 267 267 268 268 269 269 270 270 270 271
257 257 256 255 255 254 255 255 255 255 256 257 257 258 259 259 259 259 260 262 263 264 264 264 263 263 264 264 264 263 263 263 263 263 263 263 264 264 265 265 266 266 266 267 267 268 268 268 269 269 269 270
258 258 257 256 256 255 256 256 256 256 256 257 257 258 258 259 259 259 259 260 262 263 264 265 266 266 266 266 266 265 264 264 263 263 263 263 263 264 264 264 264 264 265 265 266 266 266 267 267 268 268 268
258 258 258 258 257 256 256 257 257 257 257 257 258 258 258 259 259 259 259 259 261 262 264 265 266 266 266 267 267 267 266 266 265 264 264 264 264 264 264 265 265 264 264 265 265 265 266 266 267 267 267 267
259 259 259 258 258 258 257 257 258 258 258 258 258 258 258 259 259 259 259 260 260 262 263 264 265 265 265 266 267 268 268 268 268 267 267 266 265 265 265 266 266 266 266 266 266 267 267 267 267 268 268 268
260 260 260 259 259 259 258 258 258 259 259 259 260 259 259 259 259 259 259 260 260 261 262 263 264 265 265 266 266 267 267 268 268 268 268 268 267 267 267 267 267 267 267 267 267 268 268 268 268 269 269 269
260 260 261 260 260 260 259 259 259 259 259 260 260 260 260 260 260 260 260 260 260 261 262 263 264 265 266 266 266 266 266 267 267 268 268 268 268 268 268 267 267 267 267 267 267 268 268 268 269 269 270 270
261 261 261 262 261 261 260 260 260 259 259 260 260 261 261 261 261 261 261 261 261 261 261 262 263 264 265 265 266 266 266 266 267 267 268 268 268 268 268 268 268 267 268 268 268 268 268 269 269 269 270 270
260 261 262 262 262 262 262 261 261 260 260 260 260 261 261 262 262 262 262 262 262 262 262 262 262 263 264 265 265 266 266 267 267 267 267 267 268 268 267 267 267 267 267 268 268 268 268 268 269 269 269 269
259 260 261 261 262 262 263 263 263 262 262 261 261 261 262 262 262 262 263 262 263 263 263 263 263 263 264 265 266 266 266 266 266 266 266 266 266 267 267 267 267 267 267 267 267 268 268 268 268 269 269 269
259 259 259 260 260 261 261 262 262 263 263 263 263 263 263 263 263 263 263 263 262 263 263 263 263 263 263 264 265 267 267 266 265 265 265 265 265 266 266 267 267 267 267 267 267 267 268 268 268 268 269 269
258 258 259 259 259 260 260 261 261 261 262 262 263 263 263 263 263 263 263 263 263 263 263 263 263 263 264 264 265 266 267 267 266 266 265 265 265 265 265 266 266 267 267 267 268 268 268 267 267 267 268 269
259 259 259 259 259 259 259 260 260 260 261 261 262 262 262 262 262 263 263 263 264 264 264 264 264 264 264 264 264 265 266 266 267 267 267 266 266 266 266 266 267 267 268 268 268 268 268 267 267 266 267 268
259 259 259 259 259 259 259 259 260 260 260 260 260 260 260 260 260 261 261 262 262 263 263 263 264 264 264 264 264 264 265 265 266 267 268 268 267 267 267 267 268 268 269 269 268 268 268 268 268 267 267 268
258 258 259 259 259 259 260 260 260 259 259 259 259 259 259 259 259 259 259 259 260 260 261 262 262 262 263 263 264 264 264 265 265 267 268 268 269 269 268 268 269 269 269 269 269 269 269 269 269 269 269 269
259 259 259 259 259 259 259 260 260 260 260 259 259 259 259 259 258 258 258 258 258 258 259 259 260 260 261 261 262 262 263 264 265 265 266 267 268 269 269 269 269 269 269 269 270 270 270 270 270 270 270 270
261 260 260 260 260 259 259 260 260 260 260 260 260 259 259 259 258 258 258 258 257 257 257 258 258 259 259 260 260 261 262 263 264 264 265 265 266 267 268 268 269 269 270 270 270 270 271 271 271 271 271 271
262 262 261 261 261 260 260 260 260 261 261 261 261 260 260 260 259 259 258 258 258 257 257 257 257 257 258 258 259 259 260 261 262 263 263 264 265 266 267 267 268 269 269 270 270 270 271 271 272 272 272 272
264 263 263 262 262 261 261 261 261 261 261 261 262 261 261 261 260 260 259 259 258 258 258 257 257 257 257 257 258 258 259 259 260 261 262 263 264 264 265 266 267 267 268 269 270 270 271 271 271 272 272 272
265 265 264 264 263 263 262 261 261 261 261 261 261 262 262 262 262 261 261 260 259 259 258 258 258 257 257 257 257 257 258 258 259 259 260 261 262 263 264 265 266 267 267 268 269 269 270 270 271 271 271 272
267 266 266 265 265 264 264 263 262 261 261 261 261 261 262 262 262 262 262 261 261 260 260 259 259 258 258 257 257 257 257 257 258 258 259 260 261 262 262 263 264 265 266 267 268 268 269 269 270 270 270 271
268 268 267 267 266 265 265 264 263 263 262 261 261 261 261 261 262 262 262 262 261 261 261 260 260 259 259 258 258 258 257 257 258 258 258 259 260 261 261 262 263 263 264 265 266 267 268 268 269 269 269 270
269 269 268 268 267 267 266 265 265 264 263 263 262 261 261 261 261 261 261 261 262 262 261 261 260 260 260 259 259 258 258 257 257 258 258 259 259 260 260 261 261 262 262 263 263 265 266 267 268 268 269 269
270 270 269 269 269 268 268 267 266 265 264 264 263 262 262 261 261 261 261 261 261 261 262 262 261 261 260 260 260 259 259 258 258 257 257 258 258 259 259 260 260 261 261 262 262 262 263 264 265 266 268 269
272 272 271 271 270 270 270 269 268 267 266 265 264 263 263 262 261 261 260 260 261 261 261 261 261 261 261 261 260 260 259 259 258 258 257 257 258 258 259 259 259 260 260 261 261 261 261 262 263 264 265 267
275 274 273 273 272 271 271 270 270 269 268 267 265 264 263 263 262 262 261 260 260 260 260 260 261 261 261 261 261 260 260 260 259 259 259 258 258 258 258 259 259 259 259 260 260 261 261 261 261 262 263 265
276 276 276 275 274 273 272 271 271 270 270 269 268 267 265 264 264 263 262 261 261 260 260 260 260 260 260 261 261 261 261 261 260 260 260 259 259 258 258 258 258 259 259 259 260 260 260 260 261 261 262 263
276 276 276 276 275 275 274 272 271 271 270 270 270 269 268 267 266 265 264 264 263 262 261 260 260 260 260 260 260 261 261 261 261 261 261 260 260 260 259 259 259 258 259 259 259 260 260 260 261 261 262 263
276 275 275 275 275 275 275 274 273 272 271 271 270 270 270 269 269 268 267 266 265 265 264 263 262 261 261 260 260 260 260 261 261 261 261 261 261 261 260 260 260 259 259 259 259 259 260 260 260 261 261 262
277 276 275 275 274 274 274 274 274 273 272 271 271 270 270 270 270 269 268 268 267 267 266 266 265 264 263 262 262 261 261 261 261 261 261 261 261 261 261 261 261 261 260 260 260 259 259 260 260 260 261 261